Time,TemperatureF,DewpointF,PressureIn,WindDirection,WindDirectionDegrees,WindSpeedMPH,WindSpeedGustMPH,Humidity,HourlyPrecipIn,Conditions,Clouds,dailyrainin,SoftwareType,DateUTC
2013-03-21 00:01:00,9.0,-9.0,21.94,North,0,2.0,4.0,43,0.00,,,0.00,meteohub,2013-03-21 05:01:00,
2013-03-21 00:06:00,9.0,-9.0,21.94,West,270,2.0,4.0,43,0.00,,,0.00,meteohub,2013-03-21 05:06:00,
2013-03-21 00:11:00,8.8,-9.2,21.94,North,0,2.0,4.0,43,0.00,,,0.00,meteohub,2013-03-21 05:11:00,
2013-03-21 00:16:00,8.8,-8.7,21.94,NW,315,2.0,4.0,44,0.00,,,0.00,meteohub,2013-03-21 05:16:00,
2013-03-21 00:21:00,8.8,-8.7,21.94,North,0,2.0,4.0,44,0.00,,,0.00,meteohub,2013-03-21 05:21:00,
2013-03-21 00:26:00,8.8,-8.1,21.94,North,0,2.0,4.0,45,0.00,,,0.00,meteohub,2013-03-21 05:26:00,
2013-03-21 00:31:00,8.6,-8.3,21.94,North,0,3.0,4.0,45,0.00,,,0.00,meteohub,2013-03-21 05:31:00,
2013-03-21 00:36:00,8.6,-8.0,21.95,North,0,2.0,4.0,46,0.00,,,0.00,meteohub,2013-03-21 05:36:00,
2013-03-21 00:41:00,8.6,-8.0,21.94,NE,45,3.0,4.0,46,0.00,,,0.00,meteohub,2013-03-21 05:41:00,
2013-03-21 00:46:00,8.6,-8.0,21.95,NW,315,3.0,6.0,46,0.00,,,0.00,meteohub,2013-03-21 05:46:00,
2013-03-21 00:51:00,8.6,-8.0,21.95,North,0,4.0,6.0,46,0.00,,,0.00,meteohub,2013-03-21 05:51:00,
2013-03-21 00:56:00,8.4,-8.1,21.95,NE,45,2.0,6.0,46,0.00,,,0.00,meteohub,2013-03-21 05:56:00,
2013-03-21 01:01:00,8.4,-8.1,21.95,North,0,2.0,4.0,46,0.00,,,0.00,meteohub,2013-03-21 06:01:00,
2013-03-21 01:06:00,8.4,-8.1,21.95,North,0,2.0,4.0,46,0.00,,,0.00,meteohub,2013-03-21 06:06:00,
2013-03-21 01:12:00,8.1,-8.0,21.95,NW,315,6.0,6.0,47,0.00,,,0.00,meteohub,2013-03-21 06:12:00,
2013-03-21 01:17:00,8.2,-7.8,21.95,NW,315,2.0,6.0,47,0.00,,,0.00,meteohub,2013-03-21 06:17:00,
2013-03-21 01:22:00,8.1,-8.0,21.94,North,0,2.0,6.0,47,0.00,,,0.00,meteohub,2013-03-21 06:22:00,
2013-03-21 01:27:00,7.7,-8.3,21.95,North,0,3.0,6.0,47,0.00,,,0.00,meteohub,2013-03-21 06:27:00,
2013-03-21 01:32:00,7.5,-8.1,21.95,North,0,2.0,4.0,48,0.00,,,0.00,meteohub,2013-03-21 06:32:00,
2013-03-21 01:37:00,7.3,-8.3,21.95,NW,315,2.0,4.0,48,0.00,,,0.00,meteohub,2013-03-21 06:37:00,
2013-03-21 01:42:00,7.3,-7.8,21.95,NNW,338,2.0,4.0,49,0.00,,,0.00,meteohub,2013-03-21 06:42:00,
2013-03-21 01:47:00,7.2,-8.0,21.95,NE,45,3.0,3.0,49,0.00,,,0.00,meteohub,2013-03-21 06:47:00,
2013-03-21 01:52:00,7.2,-8.0,21.95,North,0,2.0,3.0,49,0.00,,,0.00,meteohub,2013-03-21 06:52:00,
2013-03-21 01:57:00,7.2,-8.0,21.95,NW,315,2.0,4.0,49,0.00,,,0.00,meteohub,2013-03-21 06:57:00,
2013-03-21 02:02:00,7.2,-8.0,21.96,North,0,1.0,4.0,49,0.00,,,0.00,meteohub,2013-03-21 07:02:00,
2013-03-21 02:07:00,7.0,-8.1,21.96,North,0,2.0,4.0,49,0.00,,,0.00,meteohub,2013-03-21 07:07:00,
2013-03-21 02:12:00,7.0,-7.8,21.96,North,0,3.0,3.0,50,0.00,,,0.00,meteohub,2013-03-21 07:12:00,
2013-03-21 02:17:00,6.8,-8.0,21.96,NW,315,2.0,3.0,50,0.00,,,0.00,meteohub,2013-03-21 07:17:00,
2013-03-21 02:22:00,6.4,-7.8,21.96,NW,315,2.0,3.0,51,0.00,,,0.00,meteohub,2013-03-21 07:22:00,
2013-03-21 02:27:00,6.3,-8.0,21.96,NW,315,3.0,3.0,51,0.00,,,0.00,meteohub,2013-03-21 07:27:00,
2013-03-21 02:32:00,6.3,-7.6,21.96,NW,315,2.0,3.0,52,0.00,,,0.00,meteohub,2013-03-21 07:32:00,
2013-03-21 02:37:00,6.1,-7.8,21.96,NW,315,2.0,3.0,52,0.00,,,0.00,meteohub,2013-03-21 07:37:00,
2013-03-21 02:42:00,6.1,-7.8,21.96,NW,315,3.0,3.0,52,0.00,,,0.00,meteohub,2013-03-21 07:42:00,
2013-03-21 02:47:00,6.1,-7.4,21.96,NW,315,3.0,3.0,53,0.00,,,0.00,meteohub,2013-03-21 07:47:00,
2013-03-21 02:52:00,6.1,-7.4,21.97,NW,315,4.0,4.0,53,0.00,,,0.00,meteohub,2013-03-21 07:52:00,
2013-03-21 02:57:00,6.3,-7.2,21.97,North,0,2.0,4.0,53,0.00,,,0.00,meteohub,2013-03-21 07:57:00,
2013-03-21 03:02:00,6.4,-7.1,21.98,NW,315,3.0,4.0,53,0.00,,,0.00,meteohub,2013-03-21 08:02:00,
2013-03-21 03:07:00,6.4,-7.1,21.97,NW,315,2.0,4.0,53,0.00,,,0.00,meteohub,2013-03-21 08:07:00,
2013-03-21 03:12:00,6.6,-6.9,21.97,North,0,4.0,4.0,53,0.00,,,0.00,meteohub,2013-03-21 08:12:00,
2013-03-21 03:17:00,6.6,-6.9,21.97,North,0,2.0,4.0,53,0.00,,,0.00,meteohub,2013-03-21 08:17:00,
2013-03-21 03:22:00,6.6,-7.2,21.97,North,0,4.0,7.0,52,0.00,,,0.00,meteohub,2013-03-21 08:22:00,
2013-03-21 03:27:00,6.8,-7.4,21.97,NW,315,3.0,7.0,51,0.00,,,0.00,meteohub,2013-03-21 08:27:00,
2013-03-21 03:32:00,6.8,-7.4,21.97,NW,315,2.0,7.0,51,0.00,,,0.00,meteohub,2013-03-21 08:32:00,
2013-03-21 03:37:00,6.8,-7.4,21.97,NW,315,2.0,4.0,51,0.00,,,0.00,meteohub,2013-03-21 08:37:00,
2013-03-21 03:42:00,6.4,-7.4,21.97,NW,315,3.0,4.0,52,0.00,,,0.00,meteohub,2013-03-21 08:42:00,
2013-03-21 03:47:00,6.4,-7.4,21.97,North,0,2.0,4.0,52,0.00,,,0.00,meteohub,2013-03-21 08:47:00,
2013-03-21 03:52:00,6.3,-7.6,21.97,North,0,2.0,3.0,52,0.00,,,0.00,meteohub,2013-03-21 08:52:00,
2013-03-21 03:57:00,6.3,-7.6,21.97,NW,315,2.0,3.0,52,0.00,,,0.00,meteohub,2013-03-21 08:57:00,
2013-03-21 04:02:00,6.3,-7.2,21.97,North,0,2.0,3.0,53,0.00,,,0.00,meteohub,2013-03-21 09:02:00,
2013-03-21 04:07:00,6.3,-7.2,21.97,NW,315,2.0,3.0,53,0.00,,,0.00,meteohub,2013-03-21 09:07:00,
2013-03-21 04:12:00,6.1,-7.4,21.97,North,0,2.0,3.0,53,0.00,,,0.00,meteohub,2013-03-21 09:12:00,
2013-03-21 04:17:00,6.1,-7.4,21.97,NW,315,3.0,3.0,53,0.00,,,0.00,meteohub,2013-03-21 09:17:00,
2013-03-21 04:22:00,6.1,-7.4,21.97,North,0,2.0,3.0,53,0.00,,,0.00,meteohub,2013-03-21 09:22:00,
2013-03-21 04:27:00,6.3,-7.2,21.97,NW,315,2.0,3.0,53,0.00,,,0.00,meteohub,2013-03-21 09:27:00,
2013-03-21 04:32:00,6.3,-6.9,21.97,NW,315,3.0,3.0,54,0.00,,,0.00,meteohub,2013-03-21 09:32:00,
2013-03-21 04:37:00,6.4,-6.7,21.98,NW,315,2.0,4.0,54,0.00,,,0.00,meteohub,2013-03-21 09:37:00,
2013-03-21 04:42:00,6.3,-6.9,21.98,NW,315,2.0,4.0,54,0.00,,,0.00,meteohub,2013-03-21 09:42:00,
2013-03-21 04:47:00,6.3,-6.9,21.97,NW,315,2.0,4.0,54,0.00,,,0.00,meteohub,2013-03-21 09:47:00,
2013-03-21 04:52:00,5.9,-7.2,21.97,NW,315,3.0,3.0,54,0.00,,,0.00,meteohub,2013-03-21 09:52:00,
2013-03-21 04:57:00,5.9,-7.2,21.98,NW,315,2.0,3.0,54,0.00,,,0.00,meteohub,2013-03-21 09:57:00,
2013-03-21 05:02:00,5.9,-7.2,21.98,NW,315,4.0,4.0,54,0.00,,,0.00,meteohub,2013-03-21 10:02:00,
2013-03-21 05:07:00,5.9,-6.9,21.98,NW,315,2.0,4.0,55,0.00,,,0.00,meteohub,2013-03-21 10:07:00,
2013-03-21 05:12:00,5.9,-6.9,21.99,NW,315,2.0,4.0,55,0.00,,,0.00,meteohub,2013-03-21 10:12:00,
2013-03-21 05:17:00,5.9,-6.9,21.98,NW,315,2.0,4.0,55,0.00,,,0.00,meteohub,2013-03-21 10:17:00,
2013-03-21 05:22:00,5.9,-6.9,21.98,NW,315,2.0,4.0,55,0.00,,,0.00,meteohub,2013-03-21 10:22:00,
2013-03-21 05:27:00,6.3,-6.2,21.98,NW,315,2.0,3.0,56,0.00,,,0.00,meteohub,2013-03-21 10:27:00,
2013-03-21 05:32:00,6.4,-6.0,21.98,West,270,2.0,2.0,56,0.00,,,0.00,meteohub,2013-03-21 10:32:00,
2013-03-21 05:37:00,6.6,-5.8,21.98,SW,225,1.0,2.0,56,0.00,,,0.00,meteohub,2013-03-21 10:37:00,
2013-03-21 05:42:00,7.0,-5.8,21.99,NW,315,2.0,2.0,55,0.00,,,0.00,meteohub,2013-03-21 10:42:00,
2013-03-21 05:47:00,7.2,-5.6,21.98,NE,45,2.0,4.0,55,0.00,,,0.00,meteohub,2013-03-21 10:47:00,
2013-03-21 05:52:00,6.8,-6.3,21.98,NW,315,2.0,4.0,54,0.00,,,0.00,meteohub,2013-03-21 10:52:00,
2013-03-21 05:57:00,6.3,-6.5,21.98,West,270,2.0,4.0,55,0.00,,,0.00,meteohub,2013-03-21 10:57:00,
2013-03-21 06:03:00,6.1,-7.1,21.98,NW,315,2.0,2.0,54,0.00,,,0.00,meteohub,2013-03-21 11:03:00,
2013-03-21 06:08:00,5.7,-7.4,21.98,West,270,2.0,2.0,54,0.00,,,0.00,meteohub,2013-03-21 11:08:00,
2013-03-21 06:13:00,5.7,-7.4,21.98,West,270,2.0,2.0,54,0.00,,,0.00,meteohub,2013-03-21 11:13:00,
2013-03-21 06:18:00,5.5,-7.4,21.98,SW,225,2.0,2.0,54,0.00,,,0.00,meteohub,2013-03-21 11:18:00,
2013-03-21 06:23:00,5.5,-7.4,21.98,West,270,1.0,2.0,54,0.00,,,0.00,meteohub,2013-03-21 11:23:00,
2013-03-21 06:28:00,5.7,-6.9,21.98,NW,315,3.0,3.0,55,0.00,,,0.00,meteohub,2013-03-21 11:28:00,
2013-03-21 06:33:00,5.5,-7.1,21.98,West,270,2.0,3.0,55,0.00,,,0.00,meteohub,2013-03-21 11:33:00,
2013-03-21 06:38:00,5.4,-7.2,21.98,NW,315,4.0,4.0,55,0.00,,,0.00,meteohub,2013-03-21 11:38:00,
2013-03-21 06:43:00,5.7,-6.5,21.98,NW,315,2.0,5.0,56,0.00,,,0.00,meteohub,2013-03-21 11:43:00,
2013-03-21 06:48:00,5.5,-6.3,21.97,NNW,338,4.0,5.0,57,0.00,,,0.00,meteohub,2013-03-21 11:48:00,
2013-03-21 06:53:00,5.5,-6.3,21.97,NW,315,2.0,5.0,57,0.00,,,0.00,meteohub,2013-03-21 11:53:00,
2013-03-21 06:58:00,5.4,-6.2,21.97,North,0,2.0,4.0,58,0.00,,,0.00,meteohub,2013-03-21 11:58:00,
2013-03-21 07:03:00,5.2,-6.3,21.97,NW,315,2.0,4.0,58,0.00,,,0.00,meteohub,2013-03-21 12:03:00,
2013-03-21 07:08:00,5.2,-6.3,21.96,NW,315,2.0,3.0,58,0.00,,,0.00,meteohub,2013-03-21 12:08:00,
2013-03-21 07:13:00,5.2,-6.3,21.96,West,270,2.0,2.0,58,0.00,,,0.00,meteohub,2013-03-21 12:13:00,
2013-03-21 07:18:00,5.4,-5.8,21.97,SE,135,2.0,2.0,59,0.00,,,0.00,meteohub,2013-03-21 12:18:00,
2013-03-21 07:23:00,6.1,-4.9,21.96,NE,45,2.0,4.0,60,0.00,,,0.00,meteohub,2013-03-21 12:23:00,
2013-03-21 07:28:00,6.6,-4.4,21.97,NW,315,2.0,4.0,60,0.00,,,0.00,meteohub,2013-03-21 12:28:00,
2013-03-21 07:33:00,7.2,-4.2,21.96,NW,315,4.0,5.0,59,0.00,,,0.00,meteohub,2013-03-21 12:33:00,
2013-03-21 07:38:00,7.9,-3.5,21.96,West,270,3.0,5.0,59,0.00,,,0.00,meteohub,2013-03-21 12:38:00,
2013-03-21 07:43:00,8.8,-2.9,21.96,North,0,10.0,10.0,58,0.00,,,0.00,meteohub,2013-03-21 12:43:00,
2013-03-21 07:48:00,9.5,-3.1,21.96,NE,45,8.0,8.0,56,0.00,,,0.00,meteohub,2013-03-21 12:48:00,
2013-03-21 07:53:00,10.8,-1.1,21.96,East,90,2.0,10.0,58,0.00,,,0.00,meteohub,2013-03-21 12:53:00,
2013-03-21 07:58:00,11.5,-1.5,21.96,NE,45,5.0,10.0,55,0.00,,,0.00,meteohub,2013-03-21 12:58:00,
2013-03-21 08:03:00,12.7,-1.1,21.96,North,0,7.0,9.0,53,0.00,,,0.00,meteohub,2013-03-21 13:03:00,
2013-03-21 08:08:00,12.7,-2.0,21.96,NE,45,10.0,10.0,51,0.00,,,0.00,meteohub,2013-03-21 13:08:00,
2013-03-21 08:13:00,12.4,-3.1,21.96,North,0,7.0,12.0,49,0.00,,,0.00,meteohub,2013-03-21 13:13:00,
2013-03-21 08:18:00,12.7,-3.3,21.96,NE,45,11.0,12.0,48,0.00,,,0.00,meteohub,2013-03-21 13:18:00,
2013-03-21 08:23:00,13.1,-3.3,21.96,NE,45,6.0,12.0,47,0.00,,,0.00,meteohub,2013-03-21 13:23:00,
2013-03-21 08:28:00,13.1,-3.8,21.96,NE,45,3.0,12.0,46,0.00,,,0.00,meteohub,2013-03-21 13:28:00,
2013-03-21 08:33:00,14.9,-2.6,21.96,North,0,6.0,12.0,45,0.00,,,0.00,meteohub,2013-03-21 13:33:00,
2013-03-21 08:38:00,14.5,-3.8,21.96,North,0,3.0,12.0,43,0.00,,,0.00,meteohub,2013-03-21 13:38:00,
2013-03-21 08:43:00,15.4,-3.1,21.96,North,0,8.0,11.0,43,0.00,,,0.00,meteohub,2013-03-21 13:43:00,
2013-03-21 08:48:00,15.4,-3.6,21.96,NE,45,7.0,11.0,42,0.00,,,0.00,meteohub,2013-03-21 13:48:00,
2013-03-21 08:53:00,16.9,-2.7,21.96,NE,45,8.0,12.0,41,0.00,,,0.00,meteohub,2013-03-21 13:53:00,
2013-03-21 08:58:00,16.5,-3.6,21.96,NE,45,11.0,12.0,40,0.00,,,0.00,meteohub,2013-03-21 13:58:00,
2013-03-21 09:03:00,16.3,-3.8,21.96,NE,45,10.0,12.0,40,0.00,,,0.00,meteohub,2013-03-21 14:03:00,
2013-03-21 09:08:00,16.7,-3.5,21.96,NE,45,7.0,12.0,40,0.00,,,0.00,meteohub,2013-03-21 14:08:00,
2013-03-21 09:13:00,17.2,-2.9,21.96,NE,45,10.0,12.0,40,0.00,,,0.00,meteohub,2013-03-21 14:13:00,
2013-03-21 09:18:00,16.9,-3.8,21.96,NE,45,11.0,11.0,39,0.00,,,0.00,meteohub,2013-03-21 14:18:00,
2013-03-21 09:23:00,17.4,-3.3,21.96,East,90,10.0,14.0,39,0.00,,,0.00,meteohub,2013-03-21 14:23:00,
2013-03-21 09:28:00,18.1,-3.3,21.96,ESE,113,4.0,14.0,38,0.00,,,0.00,meteohub,2013-03-21 14:28:00,
2013-03-21 09:33:00,20.5,1.0,21.95,NE,45,8.0,14.0,42,0.00,,,0.00,meteohub,2013-03-21 14:33:00,
2013-03-21 09:38:00,19.6,-0.2,21.96,East,90,7.0,13.0,41,0.00,,,0.00,meteohub,2013-03-21 14:38:00,
2013-03-21 09:43:00,19.0,-4.2,21.96,NE,45,8.0,13.0,35,0.00,,,0.00,meteohub,2013-03-21 14:43:00,
2013-03-21 09:48:00,19.9,0.5,21.96,NE,45,11.0,14.0,42,0.00,,,0.00,meteohub,2013-03-21 14:48:00,
2013-03-21 09:53:00,20.8,1.4,21.96,NE,45,9.0,14.0,42,0.00,,,0.00,meteohub,2013-03-21 14:53:00,
2013-03-21 09:58:00,20.7,-0.4,21.96,ENE,68,7.0,14.0,39,0.00,,,0.00,meteohub,2013-03-21 14:58:00,
2013-03-21 10:03:00,21.2,-0.4,21.96,East,90,4.0,13.0,38,0.00,,,0.00,meteohub,2013-03-21 15:03:00,
2013-03-21 10:08:00,23.9,1.4,21.96,NE,45,10.0,13.0,37,0.00,,,0.00,meteohub,2013-03-21 15:08:00,
2013-03-21 10:13:00,23.2,-0.4,21.96,SE,135,4.0,13.0,35,0.00,,,0.00,meteohub,2013-03-21 15:13:00,
2013-03-21 10:18:00,23.9,-0.4,21.95,East,90,7.0,11.0,34,0.00,,,0.00,meteohub,2013-03-21 15:18:00,
2013-03-21 10:23:00,24.4,0.1,21.96,NE,45,4.0,11.0,34,0.00,,,0.00,meteohub,2013-03-21 15:23:00,
2013-03-21 10:28:00,24.1,-0.9,21.96,East,90,9.0,11.0,33,0.00,,,0.00,meteohub,2013-03-21 15:28:00,
2013-03-21 10:33:00,24.3,0.0,21.96,NE,45,6.0,14.0,34,0.00,,,0.00,meteohub,2013-03-21 15:33:00,
2013-03-21 10:38:00,24.8,-0.2,21.95,East,90,11.0,14.0,33,0.00,,,0.00,meteohub,2013-03-21 15:38:00,
2013-03-21 10:43:00,24.3,-0.8,21.96,NE,45,8.0,14.0,33,0.00,,,0.00,meteohub,2013-03-21 15:43:00,
2013-03-21 10:48:00,24.4,-0.6,21.96,East,90,11.0,11.0,33,0.00,,,0.00,meteohub,2013-03-21 15:48:00,
2013-03-21 10:53:00,24.8,-0.2,21.96,NE,45,10.0,11.0,33,0.00,,,0.00,meteohub,2013-03-21 15:53:00,
2013-03-21 10:58:00,25.2,0.1,21.96,East,90,11.0,12.0,33,0.00,,,0.00,meteohub,2013-03-21 15:58:00,
2013-03-21 11:03:00,25.2,0.1,21.96,NNE,23,8.0,12.0,33,0.00,,,0.00,meteohub,2013-03-21 16:03:00,
2013-03-21 11:08:00,25.2,0.1,21.96,NNE,23,8.0,11.0,33,0.00,,,0.00,meteohub,2013-03-21 16:08:00,
2013-03-21 11:13:00,26.8,-0.6,21.96,NNE,23,11.0,11.0,30,0.00,,,0.00,meteohub,2013-03-21 16:13:00,
2013-03-21 11:18:00,26.8,-0.6,21.95,NE,45,8.0,16.0,30,0.00,,,0.00,meteohub,2013-03-21 16:18:00,
2013-03-21 11:24:00,26.6,0.0,21.96,NE,45,12.0,16.0,31,0.00,,,0.00,meteohub,2013-03-21 16:24:00,
2013-03-21 11:29:00,26.6,0.0,21.96,NE,45,8.0,16.0,31,0.00,,,0.00,meteohub,2013-03-21 16:29:00,
2013-03-21 11:34:00,27.9,1.2,21.95,NE,45,11.0,14.0,31,0.00,,,0.00,meteohub,2013-03-21 16:34:00,
2013-03-21 11:39:00,26.4,-0.2,21.96,East,90,11.0,14.0,31,0.00,,,0.00,meteohub,2013-03-21 16:39:00,
2013-03-21 11:47:00,27.1,-0.2,21.96,NE,45,8.0,12.0,30,0.00,,,0.00,meteohub,2013-03-21 16:47:00,
2013-03-21 11:52:00,27.3,0.0,21.96,East,90,12.0,12.0,30,0.00,,,0.00,meteohub,2013-03-21 16:52:00,
2013-03-21 11:57:00,27.1,-0.2,21.96,NE,45,12.0,12.0,30,0.00,,,0.00,meteohub,2013-03-21 16:57:00,
2013-03-21 12:02:00,27.3,0.0,21.97,East,90,8.0,12.0,30,0.00,,,0.00,meteohub,2013-03-21 17:02:00,
2013-03-21 12:07:00,28.2,0.7,21.96,East,90,6.0,12.0,30,0.00,,,0.00,meteohub,2013-03-21 17:07:00,
2013-03-21 12:12:00,27.9,-0.2,21.96,ESE,113,8.0,12.0,29,0.00,,,0.00,meteohub,2013-03-21 17:12:00,
2013-03-21 12:17:00,28.2,0.0,21.96,East,90,8.0,12.0,29,0.00,,,0.00,meteohub,2013-03-21 17:17:00,
2013-03-21 12:22:00,29.8,4.8,21.96,NNE,23,7.0,12.0,34,0.00,,,0.00,meteohub,2013-03-21 17:22:00,
2013-03-21 12:27:00,30.4,3.4,21.96,NE,45,11.0,12.0,31,0.00,,,0.00,meteohub,2013-03-21 17:27:00,
2013-03-21 12:32:00,30.4,3.4,21.97,NE,45,6.0,11.0,31,0.00,,,0.00,meteohub,2013-03-21 17:32:00,
2013-03-21 12:37:00,31.5,3.6,21.97,SE,135,9.0,11.0,30,0.00,,,0.00,meteohub,2013-03-21 17:37:00,
2013-03-21 12:42:00,30.7,2.3,21.97,North,0,8.0,11.0,29,0.00,,,0.00,meteohub,2013-03-21 17:42:00,
2013-03-21 12:47:00,29.8,1.4,21.97,East,90,6.0,11.0,29,0.00,,,0.00,meteohub,2013-03-21 17:47:00,
2013-03-21 12:52:00,30.7,2.3,21.97,East,90,7.0,11.0,29,0.00,,,0.00,meteohub,2013-03-21 17:52:00,
2013-03-21 12:57:00,30.9,1.6,21.97,NE,45,11.0,11.0,28,0.00,,,0.00,meteohub,2013-03-21 17:57:00,
2013-03-21 13:02:00,29.8,0.7,21.97,East,90,6.0,14.0,28,0.00,,,0.00,meteohub,2013-03-21 18:02:00,
2013-03-21 13:07:00,30.2,1.0,21.97,East,90,10.0,14.0,28,0.00,,,0.00,meteohub,2013-03-21 18:07:00,
2013-03-21 13:12:00,29.7,1.2,21.97,NE,45,10.0,14.0,29,0.00,,,0.00,meteohub,2013-03-21 18:12:00,
2013-03-21 13:17:00,30.7,2.3,21.97,NE,45,8.0,11.0,29,0.00,,,0.00,meteohub,2013-03-21 18:17:00,
2013-03-21 13:22:00,30.6,1.4,21.98,East,90,8.0,11.0,28,0.00,,,0.00,meteohub,2013-03-21 18:22:00,
2013-03-21 13:27:00,31.5,2.8,21.98,NE,45,6.0,11.0,29,0.00,,,0.00,meteohub,2013-03-21 18:27:00,
2013-03-21 13:32:00,33.4,3.7,21.98,West,270,4.0,11.0,28,0.00,,,0.00,meteohub,2013-03-21 18:32:00,
2013-03-21 13:37:00,32.5,1.4,21.98,East,90,8.0,11.0,26,0.00,,,0.00,meteohub,2013-03-21 18:37:00,
2013-03-21 13:42:00,33.3,2.1,21.98,SE,135,3.0,11.0,26,0.00,,,0.00,meteohub,2013-03-21 18:42:00,
2013-03-21 13:47:00,35.2,2.8,21.98,East,90,2.0,11.0,25,0.00,,,0.00,meteohub,2013-03-21 18:47:00,
2013-03-21 13:52:00,36.5,3.2,21.98,NNE,23,9.0,9.0,24,0.00,,,0.00,meteohub,2013-03-21 18:52:00,
2013-03-21 13:57:00,34.0,0.1,21.98,WNW,293,4.0,9.0,23,0.00,,,0.00,meteohub,2013-03-21 18:57:00,
2013-03-21 14:02:00,32.7,0.7,21.99,West,270,4.0,9.0,25,0.00,,,0.00,meteohub,2013-03-21 19:02:00,
2013-03-21 14:07:00,30.7,0.0,21.99,NW,315,4.0,10.0,26,0.00,,,0.00,meteohub,2013-03-21 19:07:00,
2013-03-21 14:12:00,32.5,2.3,21.99,West,270,7.0,10.0,27,0.00,,,0.00,meteohub,2013-03-21 19:12:00,
2013-03-21 14:17:00,32.0,1.0,21.99,NW,315,6.0,10.0,26,0.00,,,0.00,meteohub,2013-03-21 19:17:00,
2013-03-21 14:22:00,33.1,1.9,21.99,NW,315,10.0,10.0,26,0.00,,,0.00,meteohub,2013-03-21 19:22:00,
2013-03-21 14:27:00,32.2,1.2,21.99,North,0,8.0,11.0,26,0.00,,,0.00,meteohub,2013-03-21 19:27:00,
2013-03-21 14:32:00,32.5,1.4,22.00,SW,225,8.0,11.0,26,0.00,,,0.00,meteohub,2013-03-21 19:32:00,
2013-03-21 14:37:00,32.0,1.0,22.00,NW,315,8.0,11.0,26,0.00,,,0.00,meteohub,2013-03-21 19:37:00,
2013-03-21 14:42:00,33.4,2.3,22.00,NE,45,7.0,11.0,26,0.00,,,0.00,meteohub,2013-03-21 19:42:00,
2013-03-21 14:47:00,34.2,1.0,22.00,West,270,4.0,10.0,24,0.00,,,0.00,meteohub,2013-03-21 19:47:00,
2013-03-21 14:52:00,33.4,1.4,22.00,North,0,9.0,9.0,25,0.00,,,0.00,meteohub,2013-03-21 19:52:00,
2013-03-21 14:57:00,32.9,0.0,22.00,North,0,8.0,9.0,24,0.00,,,0.00,meteohub,2013-03-21 19:57:00,
2013-03-21 15:02:00,32.5,-0.2,22.00,ENE,68,9.0,11.0,24,0.00,,,0.00,meteohub,2013-03-21 20:02:00,
2013-03-21 15:07:00,32.4,-0.4,22.00,NE,45,6.0,11.0,24,0.00,,,0.00,meteohub,2013-03-21 20:07:00,
2013-03-21 15:12:00,32.9,0.0,22.00,NE,45,13.0,13.0,24,0.00,,,0.00,meteohub,2013-03-21 20:12:00,
2013-03-21 15:17:00,34.0,0.1,22.00,North,0,8.0,13.0,23,0.00,,,0.00,meteohub,2013-03-21 20:17:00,
2013-03-21 15:22:00,32.7,-0.9,22.00,North,0,9.0,13.0,23,0.00,,,0.00,meteohub,2013-03-21 20:22:00,
2013-03-21 15:27:00,33.3,-0.6,22.01,NE,45,5.0,13.0,23,0.00,,,0.00,meteohub,2013-03-21 20:27:00,
2013-03-21 15:32:00,33.3,-0.6,22.00,NW,315,11.0,12.0,23,0.00,,,0.00,meteohub,2013-03-21 20:32:00,
2013-03-21 15:37:00,33.1,-0.8,22.00,North,0,5.0,13.0,23,0.00,,,0.00,meteohub,2013-03-21 20:37:00,
2013-03-21 15:42:00,35.1,1.0,22.00,NE,45,8.0,13.0,23,0.00,,,0.00,meteohub,2013-03-21 20:42:00,
2013-03-21 15:47:00,35.4,0.3,22.00,NE,45,8.0,11.0,22,0.00,,,0.00,meteohub,2013-03-21 20:47:00,
2013-03-21 15:52:00,33.6,-0.2,22.00,North,0,8.0,10.0,23,0.00,,,0.00,meteohub,2013-03-21 20:52:00,
2013-03-21 15:57:00,33.3,-0.6,22.01,West,270,11.0,12.0,23,0.00,,,0.00,meteohub,2013-03-21 20:57:00,
2013-03-21 16:02:00,35.1,0.0,22.01,NNW,338,8.0,12.0,22,0.00,,,0.00,meteohub,2013-03-21 21:02:00,
2013-03-21 16:07:00,34.0,-0.9,22.01,NW,315,8.0,11.0,22,0.00,,,0.00,meteohub,2013-03-21 21:07:00,
2013-03-21 16:12:00,33.6,-0.2,22.01,ENE,68,10.0,12.0,23,0.00,,,0.00,meteohub,2013-03-21 21:12:00,
2013-03-21 16:17:00,33.8,-1.1,22.01,North,0,7.0,12.0,22,0.00,,,0.00,meteohub,2013-03-21 21:17:00,
2013-03-21 16:22:00,34.0,-0.9,22.01,NE,45,12.0,12.0,22,0.00,,,0.00,meteohub,2013-03-21 21:22:00,
2013-03-21 16:27:00,34.0,-0.9,22.01,ENE,68,11.0,12.0,22,0.00,,,0.00,meteohub,2013-03-21 21:27:00,
2013-03-21 16:32:00,33.3,-0.6,22.01,North,0,6.0,12.0,23,0.00,,,0.00,meteohub,2013-03-21 21:32:00,
2013-03-21 16:37:00,34.7,0.7,22.01,NW,315,4.0,12.0,23,0.00,,,0.00,meteohub,2013-03-21 21:37:00,
2013-03-21 16:42:00,34.7,-0.2,22.01,North,0,8.0,11.0,22,0.00,,,0.00,meteohub,2013-03-21 21:42:00,
2013-03-21 16:47:00,35.1,0.0,22.01,North,0,8.0,10.0,22,0.00,,,0.00,meteohub,2013-03-21 21:47:00,
2013-03-21 16:52:00,34.5,-0.4,22.01,North,0,9.0,10.0,22,0.00,,,0.00,meteohub,2013-03-21 21:52:00,
2013-03-21 16:57:00,34.9,0.0,22.01,NE,45,8.0,9.0,22,0.00,,,0.00,meteohub,2013-03-21 21:57:00,
2013-03-21 17:02:00,34.9,0.0,22.01,NW,315,4.0,9.0,22,0.00,,,0.00,meteohub,2013-03-21 22:02:00,
2013-03-21 17:07:00,34.7,-0.2,22.01,NE,45,4.0,11.0,22,0.00,,,0.00,meteohub,2013-03-21 22:07:00,
2013-03-21 17:12:00,34.9,0.0,22.01,SE,135,5.0,11.0,22,0.00,,,0.00,meteohub,2013-03-21 22:12:00,
2013-03-21 17:17:00,34.2,-0.8,22.01,East,90,7.0,12.0,22,0.00,,,0.00,meteohub,2013-03-21 22:17:00,
2013-03-21 17:22:00,34.3,-0.6,22.01,NE,45,8.0,12.0,22,0.00,,,0.00,meteohub,2013-03-21 22:22:00,
2013-03-21 17:27:00,34.3,-0.6,22.01,East,90,4.0,12.0,22,0.00,,,0.00,meteohub,2013-03-21 22:27:00,
2013-03-21 17:32:00,34.9,0.0,22.01,North,0,10.0,10.0,22,0.00,,,0.00,meteohub,2013-03-21 22:32:00,
2013-03-21 17:37:00,34.2,-0.8,22.01,SE,135,4.0,10.0,22,0.00,,,0.00,meteohub,2013-03-21 22:37:00,
2013-03-21 17:42:00,34.0,-0.9,22.01,SE,135,9.0,10.0,22,0.00,,,0.00,meteohub,2013-03-21 22:42:00,
2013-03-21 17:47:00,33.6,-0.2,22.01,East,90,4.0,11.0,23,0.00,,,0.00,meteohub,2013-03-21 22:47:00,
2013-03-21 17:52:00,33.4,-0.4,22.01,NE,45,2.0,11.0,23,0.00,,,0.00,meteohub,2013-03-21 22:52:00,
2013-03-21 17:57:00,33.4,-0.4,22.01,North,0,11.0,11.0,23,0.00,,,0.00,meteohub,2013-03-21 22:57:00,
2013-03-21 18:02:00,32.5,-1.1,22.01,NE,45,8.0,11.0,23,0.00,,,0.00,meteohub,2013-03-21 23:02:00,
2013-03-21 18:07:00,32.2,-0.6,22.01,NE,45,7.0,11.0,24,0.00,,,0.00,meteohub,2013-03-21 23:07:00,
2013-03-21 18:12:00,32.0,-0.8,22.01,NE,45,5.0,11.0,24,0.00,,,0.00,meteohub,2013-03-21 23:12:00,
2013-03-21 18:17:00,31.1,-0.6,22.01,NE,45,4.0,10.0,25,0.00,,,0.00,meteohub,2013-03-21 23:17:00,
2013-03-21 18:22:00,30.6,-0.2,22.01,North,0,8.0,8.0,26,0.00,,,0.00,meteohub,2013-03-21 23:22:00,
2013-03-21 18:27:00,30.6,0.5,22.01,SE,135,8.0,8.0,27,0.00,,,0.00,meteohub,2013-03-21 23:27:00,
2013-03-21 18:32:00,30.6,0.5,22.01,ENE,68,4.0,8.0,27,0.00,,,0.00,meteohub,2013-03-21 23:32:00,
2013-03-21 18:37:00,30.0,0.9,22.01,East,90,5.0,8.0,28,0.00,,,0.00,meteohub,2013-03-21 23:37:00,
2013-03-21 18:42:00,29.1,0.1,22.01,East,90,8.0,8.0,28,0.00,,,0.00,meteohub,2013-03-21 23:42:00,
2013-03-21 18:47:00,28.0,-3.3,22.01,NE,45,8.0,11.0,25,0.00,,,0.00,meteohub,2013-03-21 23:47:00,
2013-03-21 18:52:00,27.3,-3.1,22.00,East,90,5.0,11.0,26,0.00,,,0.00,meteohub,2013-03-21 23:52:00,
2013-03-21 18:57:00,27.0,-2.6,22.01,East,90,5.0,9.0,27,0.00,,,0.00,meteohub,2013-03-21 23:57:00,
2013-03-21 19:02:00,26.8,-2.0,22.00,East,90,8.0,8.0,28,0.00,,,0.00,meteohub,2013-03-22 00:02:00,
2013-03-21 19:07:00,26.4,-1.5,22.01,East,90,7.0,8.0,29,0.00,,,0.00,meteohub,2013-03-22 00:07:00,
2013-03-21 19:12:00,26.2,-0.9,22.01,East,90,4.0,8.0,30,0.00,,,0.00,meteohub,2013-03-22 00:12:00,
2013-03-21 19:17:00,25.9,-1.3,22.01,East,90,4.0,8.0,30,0.00,,,0.00,meteohub,2013-03-22 00:17:00,
2013-03-21 19:22:00,25.7,-0.8,22.00,East,90,5.0,8.0,31,0.00,,,0.00,meteohub,2013-03-22 00:22:00,
2013-03-21 19:27:00,25.5,-0.9,22.00,East,90,8.0,8.0,31,0.00,,,0.00,meteohub,2013-03-22 00:27:00,
2013-03-21 19:32:00,25.3,-1.1,22.00,East,90,4.0,9.0,31,0.00,,,0.00,meteohub,2013-03-22 00:32:00,
2013-03-21 19:37:00,25.2,-0.6,22.00,NE,45,4.0,9.0,32,0.00,,,0.00,meteohub,2013-03-22 00:37:00,
2013-03-21 19:42:00,25.0,-0.8,22.00,SE,135,4.0,9.0,32,0.00,,,0.00,meteohub,2013-03-22 00:42:00,
2013-03-21 19:47:00,24.8,-0.9,22.00,NE,45,3.0,5.0,32,0.00,,,0.00,meteohub,2013-03-22 00:47:00,
2013-03-21 19:52:00,24.4,-0.6,22.00,SE,135,2.0,5.0,33,0.00,,,0.00,meteohub,2013-03-22 00:52:00,
2013-03-21 19:57:00,24.3,0.0,22.00,NE,45,2.0,4.0,34,0.00,,,0.00,meteohub,2013-03-22 00:57:00,
2013-03-21 20:02:00,24.1,-0.2,22.00,East,90,2.0,4.0,34,0.00,,,0.00,meteohub,2013-03-22 01:02:00,
2013-03-21 20:07:00,23.9,0.1,22.00,East,90,3.0,4.0,35,0.00,,,0.00,meteohub,2013-03-22 01:07:00,
2013-03-21 20:12:00,23.7,0.1,21.99,East,90,3.0,4.0,35,0.00,,,0.00,meteohub,2013-03-22 01:12:00,
2013-03-21 20:17:00,23.5,0.0,21.99,East,90,3.0,4.0,35,0.00,,,0.00,meteohub,2013-03-22 01:17:00,
2013-03-21 20:22:00,23.4,0.3,21.99,NE,45,2.0,4.0,36,0.00,,,0.00,meteohub,2013-03-22 01:22:00,
2013-03-21 20:27:00,23.0,0.7,21.99,NE,45,2.0,4.0,37,0.00,,,0.00,meteohub,2013-03-22 01:27:00,
2013-03-21 20:32:00,22.6,1.4,21.99,NE,45,2.0,4.0,39,0.00,,,0.00,meteohub,2013-03-22 01:32:00,
2013-03-21 20:37:00,22.3,1.6,21.99,NE,45,1.0,3.0,40,0.00,,,0.00,meteohub,2013-03-22 01:37:00,
2013-03-21 20:42:00,21.9,1.8,21.99,NE,45,2.0,2.0,41,0.00,,,0.00,meteohub,2013-03-22 01:42:00,
2013-03-21 20:47:00,21.4,1.4,21.99,NE,45,0.0,2.0,41,0.00,,,0.00,meteohub,2013-03-22 01:47:00,
2013-03-21 20:52:00,21.0,1.6,21.99,NW,315,1.0,2.0,42,0.00,,,0.00,meteohub,2013-03-22 01:52:00,
2013-03-21 20:57:00,20.7,2.7,21.99,NW,315,2.0,2.0,45,0.00,,,0.00,meteohub,2013-03-22 01:57:00,
2013-03-21 21:02:00,20.5,3.0,21.99,NW,315,2.0,2.0,46,0.00,,,0.00,meteohub,2013-03-22 02:02:00,
2013-03-21 21:07:00,20.3,3.2,21.99,NW,315,2.0,2.0,47,0.00,,,0.00,meteohub,2013-03-22 02:07:00,
2013-03-21 21:12:00,19.8,3.2,21.98,NW,315,0.0,2.0,48,0.00,,,0.00,meteohub,2013-03-22 02:12:00,
2013-03-21 21:17:00,19.6,3.6,21.98,NW,315,0.0,2.0,49,0.00,,,0.00,meteohub,2013-03-22 02:17:00,
2013-03-21 21:22:00,19.2,1.8,21.99,NW,315,2.0,2.0,46,0.00,,,0.00,meteohub,2013-03-22 02:22:00,
2013-03-21 21:27:00,18.9,1.9,21.98,NW,315,0.0,2.0,47,0.00,,,0.00,meteohub,2013-03-22 02:27:00,
2013-03-21 21:32:00,18.5,2.1,21.98,NW,315,0.0,2.0,48,0.00,,,0.00,meteohub,2013-03-22 02:32:00,
2013-03-21 21:37:00,18.3,1.4,21.98,NW,315,0.0,2.0,47,0.00,,,0.00,meteohub,2013-03-22 02:37:00,
2013-03-21 21:42:00,18.1,1.8,21.98,NW,315,0.0,2.0,48,0.00,,,0.00,meteohub,2013-03-22 02:42:00,
2013-03-21 21:47:00,17.8,1.4,21.98,NW,315,0.0,0.0,48,0.00,,,0.00,meteohub,2013-03-22 02:47:00,
2013-03-21 21:52:00,17.6,1.2,21.98,NW,315,1.0,0.0,48,0.00,,,0.00,meteohub,2013-03-22 02:52:00,
2013-03-21 22:02:00,17.2,1.4,21.98,NW,315,2.0,2.0,49,0.00,,,0.00,meteohub,2013-03-22 03:02:00,
2013-03-21 22:07:00,17.2,1.8,21.98,North,0,2.0,2.0,50,0.00,,,0.00,meteohub,2013-03-22 03:07:00,
2013-03-21 22:12:00,17.2,1.8,21.97,NW,315,1.0,2.0,50,0.00,,,0.00,meteohub,2013-03-22 03:12:00,
2013-03-21 22:17:00,17.1,1.6,21.97,NW,315,0.0,2.0,50,0.00,,,0.00,meteohub,2013-03-22 03:17:00,
2013-03-21 22:22:00,16.7,0.9,21.98,NW,315,0.0,2.0,49,0.00,,,0.00,meteohub,2013-03-22 03:22:00,
2013-03-21 22:27:00,16.3,0.5,21.98,West,270,0.0,2.0,49,0.00,,,0.00,meteohub,2013-03-22 03:27:00,
2013-03-21 22:32:00,16.3,1.0,21.98,NW,315,1.0,2.0,50,0.00,,,0.00,meteohub,2013-03-22 03:32:00,
2013-03-21 22:37:00,16.3,1.0,21.98,North,0,2.0,2.0,50,0.00,,,0.00,meteohub,2013-03-22 03:37:00,
2013-03-21 22:42:00,16.2,0.9,21.98,North,0,1.0,2.0,50,0.00,,,0.00,meteohub,2013-03-22 03:42:00,
2013-03-21 22:47:00,15.8,0.5,21.98,North,0,0.0,2.0,50,0.00,,,0.00,meteohub,2013-03-22 03:47:00,
2013-03-21 22:52:00,15.6,0.7,21.98,North,0,0.0,2.0,51,0.00,,,0.00,meteohub,2013-03-22 03:52:00,
2013-03-21 22:57:00,15.6,0.7,21.98,North,0,0.0,2.0,51,0.00,,,0.00,meteohub,2013-03-22 03:57:00,
2013-03-21 23:00:00,15.6,1.0,21.98,NW,315,2.0,2.0,52,0.00,,,0.00,meteohub,2013-03-22 04:00:00,
2013-03-21 23:01:00,15.6,1.0,21.98,NW,315,2.0,2.0,52,0.00,,,0.00,meteohub,2013-03-22 04:01:00,
2013-03-21 23:06:00,15.6,1.0,21.98,NW,315,2.0,2.0,52,0.00,,,0.00,meteohub,2013-03-22 04:06:00,
2013-03-21 23:07:00,15.8,1.8,21.98,North,0,2.0,2.0,53,0.00,,,0.00,meteohub,2013-03-22 04:07:00,
2013-03-21 23:12:00,16.0,2.3,21.98,NW,315,3.0,3.0,54,0.00,,,0.00,meteohub,2013-03-22 04:12:00,
2013-03-21 23:17:00,16.3,2.7,21.97,North,0,3.0,4.0,54,0.00,,,0.00,meteohub,2013-03-22 04:17:00,
2013-03-21 23:22:00,16.5,2.3,21.97,NW,315,3.0,4.0,53,0.00,,,0.00,meteohub,2013-03-22 04:22:00,
2013-03-21 23:27:00,16.3,1.8,21.98,North,0,2.0,4.0,52,0.00,,,0.00,meteohub,2013-03-22 04:27:00,
2013-03-21 23:32:00,16.3,1.8,21.97,NW,315,2.0,3.0,52,0.00,,,0.00,meteohub,2013-03-22 04:32:00,
2013-03-21 23:37:00,16.2,1.6,21.97,NW,315,2.0,3.0,52,0.00,,,0.00,meteohub,2013-03-22 04:37:00,
2013-03-21 23:42:00,16.2,1.6,21.97,NW,315,2.0,3.0,52,0.00,,,0.00,meteohub,2013-03-22 04:42:00,
2013-03-21 23:46:00,16.0,1.4,21.98,East,90,2.0,3.0,52,0.00,,,0.00,meteohub,2013-03-22 04:46:00,
2013-03-21 23:52:00,16.0,1.4,21.98,West,270,1.0,3.0,52,0.00,,,0.00,meteohub,2013-03-22 04:52:00,
2013-03-21 23:57:00,15.8,0.9,21.98,North,0,2.0,2.0,51,0.00,,,0.00,meteohub,2013-03-22 04:57:00,